Regional Weather Roundup
Issued by NWS

Home | Current Version | Previous Version | Graphics & Text | Print | Product List | Glossary On
Versions: 1 2 3 4 5 6 7 8 9 10 11 12 13 14 15 16 17 18 19 20 21 22 23 24 25 26 27
000
ASUS45 KPSR 111710
RWRAZ

ARIZONA HOURLY REGIONAL WEATHER ROUNDUP
NATIONAL WEATHER SERVICE PHOENIX AZ
1000 AM MST MON DEC 11 2017

NOTE: FAIR INDICATES FEW OR NO CLOUDS BELOW 12,000 FEET WITH NO
SIGNIFICANT WEATHER AND/OR OBSTRUCTIONS TO VISIBILITY.

AZZ001>003-036-111800-
NORTHWEST ARIZONA

CITY           SKY/WX    TMP DP  RH WIND       PRES   REMARKS
BULLHEAD CITY  PTSUNNY   59   9  13 N25G32    30.31S
KINGMAN        MOSUNNY   49   2  14 NE5       30.39R
$$

AZZ004>008-015-016-018-111800-
NORTH CENTRAL ARIZONA

CITY           SKY/WX    TMP DP  RH WIND       PRES   REMARKS
GRAND CANYON   MOSUNNY   48 -13   7 NE8       30.49S
WILLIAMS       MOSUNNY   43 -15   8 S8        30.44R
PRESCOTT       CLOUDY    37   3  24 S3        30.42S
FLAGSTAFF      MOSUNNY   37  -2  19 E6        30.49R WCI  32
PAYSON         PTSUNNY   55  -6   8 NE5       30.39S
PAGE           MOSUNNY   34  12  40 CALM      30.55R
$$

AZZ009>014-017-111800-
NORTHEAST ARIZONA

CITY           SKY/WX    TMP DP  RH WIND       PRES   REMARKS
WINSLOW        PTSUNNY   24  -1  33 CALM      30.54R
SAINT JOHNS    PTSUNNY   26  -2  29 N7        30.49R WCI  18
WINDOW ROCK    SUNNY     31  -9  17 CALM      30.50F
SHOW LOW       PTSUNNY   37   3  23 N8        30.49R WCI  31
$$

AZZ540-542>544-546-548-111800-
GREATER PHOENIX AREA

CITY           SKY/WX    TMP DP  RH WIND       PRES   REMARKS
PHOENIX        PTSUNNY   68   8   9 E16       30.24R
GLENDALE       PTSUNNY   63  19  19 CALM      30.27R
LUKE AFB       SUNNY     63  17  17 CALM      30.24R
DEER VALLEY    PTSUNNY   64  -2   7 CALM      30.26R
SCOTTSDALE     PTSUNNY   63  21  20 W5        30.27R
MESA-FALCON    PTSUNNY   61   7  11 N12       30.27R
MESA-GATEWAY   PTSUNNY   63  14  15 CALM      30.27R
CHANDLER       SUNNY     63  18  17 N5        30.26R
$$

AZZ539-553-111800-
SOUTHWEST MARICOPA COUNTY AND PINAL COUNTY

CITY           SKY/WX    TMP DP  RH WIND       PRES   REMARKS
CASA GRANDE    NOT AVBL
GILA BEND      PTSUNNY   68  12  11 E6        30.22R
$$

AZZ503-504-507>509-111800-
SOUTHEAST ARIZONA

CITY           SKY/WX    TMP DP  RH WIND       PRES   REMARKS
TUCSON         CLOUDY    64  18  17 E10       30.30R
DAVIS-MONTHAN  CLOUDY    62  18  18 SE10      30.28R
RYAN FIELD     SUNNY     63  19  19 E10       30.29R
NOGALES        CLOUDY    58  19  22 N6        30.31S
SIERRA VISTA   CLOUDY    49  15  25 CALM      30.38R
DOUGLAS        CLOUDY    49  17  28 W6        30.37R
SAFFORD        MOSUNNY   54   7  15 E13       30.38R
$$

AZZ532-111800-
SOUTHWEST ARIZONA

CITY           SKY/WX    TMP DP  RH WIND       PRES   REMARKS
YUMA           MOSUNNY   66  19  16 NE6       30.23R
$$

CAZ041-043-047-048-061-525>527-560>570-111800-
SOUTHERN CALIFORNIA

CITY           SKY/WX    TMP DP  RH WIND       PRES   REMARKS
DOWNTOWN L.A.  SUNNY     68  13  12 CALM      30.20R
L.A. AIRPORT   PTSUNNY   71  13  10 VRB5      30.21R
SAN DIEGO      MOSUNNY   67  24  19 N3        30.21R
BURBANK        SUNNY     65  16  15 CALM      30.22R
ONTARIO        PTSUNNY   66  12  12 W3        30.23R
RIVERSIDE      PTSUNNY   72  11   9 E7        30.23R
PALM SPRINGS   SUNNY     69  13  11 SW6       30.27R
EL CENTRO NAS  PTSUNNY   63  16  16 W6        30.25R
IMPERIAL       MOSUNNY   62  22  21 W5        30.23R
BLYTHE         MOSUNNY   61   6  11 S3        30.28R
NEEDLES        PTSUNNY   61   7  11 N9        30.33R
$$

NVZ020-UTZ003-111800-
SOUTHERN NEVADA-UTAH

CITY           SKY/WX    TMP DP  RH WIND       PRES   REMARKS
LAS VEGAS      MOSUNNY   52   1  12 S6        30.41R
SALT LAKE CITY FOG       27  24  89 CALM      30.65R VSB 1/4
$$

NMZ009-TXZ055-111800-
NEW MEXICO-WEST TEXAS

CITY           SKY/WX    TMP DP  RH WIND       PRES   REMARKS
ALBUQUERQUE    CLOUDY    38   2  22 NW8       30.47R WCI  32
EL PASO        MOSUNNY   46  17  31 N8        30.41R
$$


........................KEY........................
SKY/WX - SKY CONDITION/WEATHER
TMP    - TEMPERATURE IN FAHRENHEIT
DP     - DEW POINT IN FAHRENHEIT
RH     - RELATIVE HUMIDITY IN PERCENT
WIND   - DIRECTION AND SPEED IN MILES PER HOUR (MPH)
VRB    - VARIABLE WIND DIRECTION
PRES   - MEAN SEA LEVEL PRESSURE IN INCHES OF MERCURY
         F - FALLING PRESSURE   R - RISING PRESSURE
         S - STEADY PRESSURE
VSB    - VISIBILITY IN MILES
HX     - HEAT INDEX IN FAHRENHEIT
WCI    - WIND CHILL INDEX IN FAHRENHEIT
TC     - TEMPERATURE IN CELSIUS WHICH IS ALSO KNOWN AS
         TEMPERATURE IN CENTIGRADE
AFB    - AIR FORCE BASE
         LUKE AFB IS LUKE AIR FORCE BASE
         DAVIS-MONTHAN IS DAVIS-MONTHAN AIR FORCE BASE
NAS    - NAVAL AIR STATION
         EL CENTRO NAS IS EL CENTRO NAVAL AIR STATION
N/A    - NOT AVAILABLE





USA.gov is the U.S. government's official web portal to all federal, state and local government web resources and services.